Time,TemperatureF,DewpointF,PressureIn,WindDirection,WindDirectionDegrees,WindSpeedMPH,WindSpeedGustMPH,Humidity,HourlyPrecipIn,Conditions,Clouds,dailyrainin,SoftwareType,DateUTC
2013-11-04 00:01:00,20.0,18.0,30.62,South,180,3.0,4.0,90,0.00,,,0.00,Rainwise IP-100,2013-11-04 05:01:00,
2013-11-04 00:02:00,20.0,18.0,30.62,South,180,3.0,4.0,90,0.00,,,0.00,Rainwise IP-100,2013-11-04 05:02:00,
2013-11-04 00:07:00,20.0,18.0,30.63,South,180,2.0,3.0,91,0.00,,,0.00,Rainwise IP-100,2013-11-04 05:07:00,
2013-11-04 00:12:00,20.0,18.0,30.63,South,180,1.0,4.0,89,0.00,,,0.00,Rainwise IP-100,2013-11-04 05:12:00,
2013-11-04 00:17:00,21.0,18.0,30.64,South,180,6.0,6.0,88,0.00,,,0.00,Rainwise IP-100,2013-11-04 05:17:00,
2013-11-04 00:22:00,21.0,18.0,30.64,SSE,157,5.0,6.0,87,0.00,,,0.00,Rainwise IP-100,2013-11-04 05:22:00,
2013-11-04 00:27:00,21.0,18.0,30.63,SSE,157,3.0,6.0,87,0.00,,,0.00,Rainwise IP-100,2013-11-04 05:27:00,
2013-11-04 00:32:00,21.0,16.0,30.63,SSE,157,6.0,7.0,85,0.00,,,0.00,Rainwise IP-100,2013-11-04 05:32:00,
2013-11-04 00:37:00,21.0,16.0,30.63,SSE,157,4.0,6.0,86,0.00,,,0.00,Rainwise IP-100,2013-11-04 05:37:00,
2013-11-04 00:42:00,20.0,18.0,30.63,SW,225,3.0,5.0,90,0.00,,,0.00,Rainwise IP-100,2013-11-04 05:42:00,
2013-11-04 00:47:00,20.0,18.0,30.65,SSW,202,3.0,4.0,90,0.00,,,0.00,Rainwise IP-100,2013-11-04 05:47:00,
2013-11-04 00:52:00,21.0,18.0,30.65,SSE,157,5.0,6.0,87,0.00,,,0.00,Rainwise IP-100,2013-11-04 05:52:00,
2013-11-04 00:57:00,20.0,18.0,30.64,SSE,157,0.0,6.0,88,0.00,,,0.00,Rainwise IP-100,2013-11-04 05:57:00,
2013-11-04 01:02:00,20.0,18.0,30.64,SSE,157,0.0,0.0,91,0.00,,,0.00,Rainwise IP-100,2013-11-04 06:02:00,
2013-11-04 01:07:00,20.0,18.0,30.65,SSE,157,3.0,3.0,93,0.00,,,0.00,Rainwise IP-100,2013-11-04 06:07:00,
2013-11-04 01:12:00,20.0,18.0,30.65,SSE,157,0.0,4.0,91,0.00,,,0.00,Rainwise IP-100,2013-11-04 06:12:00,
2013-11-04 01:17:00,19.0,18.0,30.65,SSE,157,1.0,1.0,93,0.00,,,0.00,Rainwise IP-100,2013-11-04 06:17:00,
2013-11-04 01:22:00,19.0,18.0,30.65,SW,225,2.0,5.0,93,0.00,,,0.00,Rainwise IP-100,2013-11-04 06:22:00,
2013-11-04 01:27:00,19.0,18.0,30.66,SW,225,3.0,4.0,92,0.00,,,0.00,Rainwise IP-100,2013-11-04 06:27:00,
2013-11-04 01:32:00,20.0,18.0,30.66,SSW,202,0.0,3.0,88,0.00,,,0.00,Rainwise IP-100,2013-11-04 06:32:00,
2013-11-04 01:37:00,20.0,18.0,30.66,SSW,202,0.0,0.0,91,0.00,,,0.00,Rainwise IP-100,2013-11-04 06:37:00,
2013-11-04 01:42:00,19.0,18.0,30.66,SSW,202,0.0,2.0,93,0.00,,,0.00,Rainwise IP-100,2013-11-04 06:42:00,
2013-11-04 01:47:00,19.0,18.0,30.67,SSW,202,2.0,3.0,93,0.00,,,0.00,Rainwise IP-100,2013-11-04 06:47:00,
2013-11-04 01:52:00,19.0,18.0,30.67,South,180,4.0,5.0,93,0.00,,,0.00,Rainwise IP-100,2013-11-04 06:52:00,
2013-11-04 01:57:00,19.0,18.0,30.67,SSE,157,4.0,5.0,92,0.00,,,0.00,Rainwise IP-100,2013-11-04 06:57:00,
2013-11-04 02:02:00,19.0,18.0,30.67,SSE,157,4.0,6.0,92,0.00,,,0.00,Rainwise IP-100,2013-11-04 07:02:00,
2013-11-04 02:07:00,20.0,18.0,30.67,SSE,157,5.0,7.0,89,0.00,,,0.00,Rainwise IP-100,2013-11-04 07:07:00,
2013-11-04 02:12:00,20.0,18.0,30.67,SSE,157,5.0,6.0,90,0.00,,,0.00,Rainwise IP-100,2013-11-04 07:12:00,
2013-11-04 02:17:00,20.0,18.0,30.68,SSE,157,3.0,6.0,89,0.00,,,0.00,Rainwise IP-100,2013-11-04 07:17:00,
2013-11-04 02:22:00,19.0,18.0,30.68,SSE,157,0.0,4.0,91,0.00,,,0.00,Rainwise IP-100,2013-11-04 07:22:00,
2013-11-04 02:27:00,19.0,18.0,30.68,SSE,157,0.0,3.0,93,0.00,,,0.00,Rainwise IP-100,2013-11-04 07:27:00,
2013-11-04 02:32:00,18.0,16.0,30.68,SSE,157,0.0,3.0,93,0.00,,,0.00,Rainwise IP-100,2013-11-04 07:32:00,
2013-11-04 02:37:00,18.0,16.0,30.69,SSE,157,1.0,2.0,93,0.00,,,0.00,Rainwise IP-100,2013-11-04 07:37:00,
2013-11-04 02:42:00,18.0,16.0,30.69,SSE,157,0.0,1.0,93,0.00,,,0.00,Rainwise IP-100,2013-11-04 07:42:00,
2013-11-04 02:47:00,18.0,16.0,30.69,SSE,157,0.0,0.0,93,0.00,,,0.00,Rainwise IP-100,2013-11-04 07:47:00,
2013-11-04 02:52:00,18.0,16.0,30.69,SSE,157,0.0,2.0,93,0.00,,,0.00,Rainwise IP-100,2013-11-04 07:52:00,
2013-11-04 02:57:00,18.0,16.0,30.69,SSE,157,0.0,1.0,93,0.00,,,0.00,Rainwise IP-100,2013-11-04 07:57:00,
2013-11-04 03:02:00,18.0,16.0,30.69,SSE,157,0.0,1.0,93,0.00,,,0.00,Rainwise IP-100,2013-11-04 08:02:00,
2013-11-04 03:07:00,18.0,16.0,30.69,SSE,157,1.0,2.0,93,0.00,,,0.00,Rainwise IP-100,2013-11-04 08:07:00,
2013-11-04 03:12:00,18.0,16.0,30.69,SSE,157,2.0,2.0,93,0.00,,,0.00,Rainwise IP-100,2013-11-04 08:12:00,
2013-11-04 03:17:00,18.0,16.0,30.69,SSE,157,3.0,3.0,93,0.00,,,0.00,Rainwise IP-100,2013-11-04 08:17:00,
2013-11-04 03:22:00,18.0,16.0,30.69,SSE,157,1.0,4.0,93,0.00,,,0.00,Rainwise IP-100,2013-11-04 08:22:00,
2013-11-04 03:27:00,18.0,16.0,30.69,SSE,157,1.0,2.0,93,0.00,,,0.00,Rainwise IP-100,2013-11-04 08:27:00,
2013-11-04 03:32:00,18.0,16.0,30.69,SSE,157,3.0,4.0,93,0.00,,,0.00,Rainwise IP-100,2013-11-04 08:32:00,
2013-11-04 03:37:00,18.0,16.0,30.69,SSE,157,2.0,4.0,93,0.00,,,0.00,Rainwise IP-100,2013-11-04 08:37:00,
2013-11-04 03:42:00,18.0,16.0,30.69,SSE,157,2.0,4.0,93,0.00,,,0.00,Rainwise IP-100,2013-11-04 08:42:00,
2013-11-04 03:47:00,18.0,16.0,30.70,SSE,157,0.0,3.0,93,0.00,,,0.00,Rainwise IP-100,2013-11-04 08:47:00,
2013-11-04 03:52:00,18.0,16.0,30.70,SSE,157,0.0,1.0,93,0.00,,,0.00,Rainwise IP-100,2013-11-04 08:52:00,
2013-11-04 03:57:00,18.0,16.0,30.70,SSE,157,0.0,0.0,93,0.00,,,0.00,Rainwise IP-100,2013-11-04 08:57:00,
2013-11-04 04:02:00,17.0,16.0,30.70,SSE,157,0.0,0.0,93,0.00,,,0.00,Rainwise IP-100,2013-11-04 09:02:00,
2013-11-04 04:07:00,17.0,16.0,30.72,SSE,157,0.0,0.0,93,0.00,,,0.00,Rainwise IP-100,2013-11-04 09:07:00,
2013-11-04 04:12:00,16.0,14.0,30.72,SSE,157,0.0,0.0,93,0.00,,,0.00,Rainwise IP-100,2013-11-04 09:12:00,
2013-11-04 04:17:00,16.0,14.0,30.73,SSE,157,0.0,0.0,93,0.00,,,0.00,Rainwise IP-100,2013-11-04 09:17:00,
2013-11-04 04:22:00,16.0,14.0,30.73,SSE,157,0.0,0.0,93,0.00,,,0.00,Rainwise IP-100,2013-11-04 09:22:00,
2013-11-04 04:27:00,16.0,14.0,30.73,SSE,157,0.0,0.0,93,0.00,,,0.00,Rainwise IP-100,2013-11-04 09:27:00,
2013-11-04 04:32:00,17.0,16.0,30.73,SSE,157,0.0,0.0,93,0.00,,,0.00,Rainwise IP-100,2013-11-04 09:32:00,
2013-11-04 04:37:00,17.0,16.0,30.73,SSE,157,0.0,2.0,93,0.00,,,0.00,Rainwise IP-100,2013-11-04 09:37:00,
2013-11-04 04:42:00,17.0,16.0,30.73,SSE,157,0.0,1.0,93,0.00,,,0.00,Rainwise IP-100,2013-11-04 09:42:00,
2013-11-04 04:47:00,17.0,16.0,30.73,SSE,157,0.0,0.0,93,0.00,,,0.00,Rainwise IP-100,2013-11-04 09:47:00,
2013-11-04 04:52:00,17.0,16.0,30.73,SSE,157,2.0,2.0,93,0.00,,,0.00,Rainwise IP-100,2013-11-04 09:52:00,
2013-11-04 04:57:00,17.0,16.0,30.74,SSE,157,3.0,6.0,93,0.00,,,0.00,Rainwise IP-100,2013-11-04 09:57:00,
2013-11-04 05:02:00,17.0,16.0,30.74,South,180,3.0,3.0,93,0.00,,,0.00,Rainwise IP-100,2013-11-04 10:02:00,
2013-11-04 05:07:00,17.0,16.0,30.75,SSW,202,2.0,5.0,93,0.00,,,0.00,Rainwise IP-100,2013-11-04 10:07:00,
2013-11-04 05:12:00,17.0,16.0,30.75,South,180,4.0,6.0,93,0.00,,,0.00,Rainwise IP-100,2013-11-04 10:12:00,
2013-11-04 05:17:00,17.0,16.0,30.75,South,180,2.0,5.0,93,0.00,,,0.00,Rainwise IP-100,2013-11-04 10:17:00,
2013-11-04 05:22:00,17.0,16.0,30.75,SW,225,3.0,4.0,93,0.00,,,0.00,Rainwise IP-100,2013-11-04 10:22:00,
2013-11-04 05:27:00,16.0,14.0,30.75,SW,225,3.0,5.0,93,0.00,,,0.00,Rainwise IP-100,2013-11-04 10:27:00,
2013-11-04 05:32:00,16.0,14.0,30.75,SW,225,2.0,4.0,93,0.00,,,0.00,Rainwise IP-100,2013-11-04 10:32:00,
2013-11-04 05:37:00,17.0,16.0,30.76,SW,225,2.0,4.0,93,0.00,,,0.00,Rainwise IP-100,2013-11-04 10:37:00,
2013-11-04 05:42:00,17.0,16.0,30.76,SSW,202,4.0,5.0,93,0.00,,,0.00,Rainwise IP-100,2013-11-04 10:42:00,
2013-11-04 05:47:00,17.0,16.0,30.76,SSE,157,7.0,7.0,93,0.00,,,0.00,Rainwise IP-100,2013-11-04 10:47:00,
2013-11-04 05:52:00,17.0,16.0,30.76,SSE,157,5.0,7.0,93,0.00,,,0.00,Rainwise IP-100,2013-11-04 10:52:00,
2013-11-04 05:57:00,17.0,16.0,30.76,SE,135,6.0,7.0,93,0.00,,,0.00,Rainwise IP-100,2013-11-04 10:57:00,
2013-11-04 06:02:00,18.0,16.0,30.76,SSE,157,5.0,7.0,93,0.00,,,0.00,Rainwise IP-100,2013-11-04 11:02:00,
2013-11-04 06:07:00,18.0,16.0,30.75,SSE,157,5.0,6.0,93,0.00,,,0.00,Rainwise IP-100,2013-11-04 11:07:00,
2013-11-04 06:12:00,18.0,16.0,30.75,SSE,157,3.0,6.0,93,0.00,,,0.00,Rainwise IP-100,2013-11-04 11:12:00,
2013-11-04 06:14:00,18.0,16.0,30.76,SSE,157,4.0,6.0,92,0.00,,,0.00,Rainwise IP-100,2013-11-04 11:14:00,
2013-11-04 06:19:00,18.0,16.0,30.76,SE,135,6.0,6.0,93,0.00,,,0.00,Rainwise IP-100,2013-11-04 11:19:00,
2013-11-04 06:22:00,18.0,16.0,30.76,SE,135,4.0,6.0,93,0.00,,,0.00,Rainwise IP-100,2013-11-04 11:22:00,
2013-11-04 06:27:00,18.0,16.0,30.76,SE,135,1.0,5.0,93,0.00,,,0.00,Rainwise IP-100,2013-11-04 11:27:00,
2013-11-04 06:32:00,17.0,16.0,30.76,SE,135,0.0,3.0,93,0.00,,,0.00,Rainwise IP-100,2013-11-04 11:32:00,
2013-11-04 06:37:00,17.0,16.0,30.77,NW,315,0.0,5.0,93,0.00,,,0.00,Rainwise IP-100,2013-11-04 11:37:00,
2013-11-04 06:42:00,16.0,14.0,30.77,NW,315,0.0,2.0,93,0.00,,,0.00,Rainwise IP-100,2013-11-04 11:42:00,
2013-11-04 06:47:00,16.0,14.0,30.78,NW,315,0.0,0.0,93,0.00,,,0.00,Rainwise IP-100,2013-11-04 11:47:00,
2013-11-04 06:52:00,16.0,14.0,30.78,North,360,0.0,0.0,93,0.00,,,0.00,Rainwise IP-100,2013-11-04 11:52:00,
2013-11-04 06:57:00,16.0,14.0,30.78,North,360,0.0,0.0,93,0.00,,,0.00,Rainwise IP-100,2013-11-04 11:57:00,
2013-11-04 07:02:00,15.0,14.0,30.78,North,360,0.0,0.0,93,0.00,,,0.00,Rainwise IP-100,2013-11-04 12:02:00,
2013-11-04 07:07:00,15.0,14.0,30.79,North,360,0.0,0.0,93,0.00,,,0.00,Rainwise IP-100,2013-11-04 12:07:00,
2013-11-04 07:12:00,15.0,14.0,30.79,North,360,0.0,0.0,93,0.00,,,0.00,Rainwise IP-100,2013-11-04 12:12:00,
2013-11-04 07:17:00,16.0,14.0,30.78,North,360,0.0,0.0,93,0.00,,,0.00,Rainwise IP-100,2013-11-04 12:17:00,
2013-11-04 07:22:00,16.0,14.0,30.78,North,360,0.0,0.0,93,0.00,,,0.00,Rainwise IP-100,2013-11-04 12:22:00,
2013-11-04 07:27:00,16.0,14.0,30.79,North,360,0.0,1.0,93,0.00,,,0.00,Rainwise IP-100,2013-11-04 12:27:00,
2013-11-04 07:32:00,17.0,16.0,30.79,North,360,0.0,0.0,93,0.00,,,0.00,Rainwise IP-100,2013-11-04 12:32:00,
2013-11-04 07:37:00,18.0,16.0,30.79,North,360,0.0,0.0,93,0.00,,,0.00,Rainwise IP-100,2013-11-04 12:37:00,
2013-11-04 07:42:00,19.0,18.0,30.79,North,360,0.0,1.0,93,0.00,,,0.00,Rainwise IP-100,2013-11-04 12:42:00,
2013-11-04 07:47:00,20.0,18.0,30.79,North,360,0.0,0.0,93,0.00,,,0.00,Rainwise IP-100,2013-11-04 12:47:00,
2013-11-04 07:52:00,21.0,18.0,30.79,North,360,0.0,0.0,93,0.00,,,0.00,Rainwise IP-100,2013-11-04 12:52:00,
2013-11-04 07:57:00,21.0,18.0,30.79,North,360,0.0,0.0,91,0.00,,,0.00,Rainwise IP-100,2013-11-04 12:57:00,
2013-11-04 08:02:00,21.0,18.0,30.79,North,360,0.0,1.0,92,0.00,,,0.00,Rainwise IP-100,2013-11-04 13:02:00,
2013-11-04 08:07:00,22.0,21.0,30.79,North,360,0.0,1.0,93,0.00,,,0.00,Rainwise IP-100,2013-11-04 13:07:00,
2013-11-04 08:12:00,23.0,21.0,30.79,North,360,0.0,3.0,93,0.00,,,0.00,Rainwise IP-100,2013-11-04 13:12:00,
2013-11-04 08:17:00,24.0,23.0,30.78,North,360,0.0,1.0,94,0.00,,,0.00,Rainwise IP-100,2013-11-04 13:17:00,
2013-11-04 08:22:00,25.0,24.0,30.78,North,360,0.0,1.0,94,0.00,,,0.00,Rainwise IP-100,2013-11-04 13:22:00,
2013-11-04 08:27:00,26.0,24.0,30.78,North,360,0.0,2.0,94,0.00,,,0.00,Rainwise IP-100,2013-11-04 13:27:00,
2013-11-04 08:32:00,26.0,24.0,30.78,NNE,22,0.0,2.0,90,0.00,,,0.00,Rainwise IP-100,2013-11-04 13:32:00,
2013-11-04 08:37:00,25.0,21.0,30.78,NE,45,2.0,3.0,76,0.00,,,0.00,Rainwise IP-100,2013-11-04 13:37:00,
2013-11-04 08:42:00,26.0,24.0,30.78,NE,45,2.0,3.0,94,0.00,,,0.00,Rainwise IP-100,2013-11-04 13:42:00,
2013-11-04 08:47:00,27.0,23.0,30.78,NE,45,0.0,3.0,78,0.00,,,0.00,Rainwise IP-100,2013-11-04 13:47:00,
2013-11-04 08:52:00,27.0,21.0,30.78,NE,45,3.0,6.0,71,0.00,,,0.00,Rainwise IP-100,2013-11-04 13:52:00,
2013-11-04 08:57:00,27.0,21.0,30.78,NE,45,1.0,6.0,73,0.00,,,0.00,Rainwise IP-100,2013-11-04 13:57:00,
2013-11-04 09:02:00,27.0,18.0,30.78,East,90,4.0,5.0,68,0.00,,,0.00,Rainwise IP-100,2013-11-04 14:02:00,
2013-11-04 09:07:00,27.0,18.0,30.79,NE,45,3.0,7.0,65,0.00,,,0.00,Rainwise IP-100,2013-11-04 14:07:00,
2013-11-04 09:12:00,27.0,18.0,30.79,NE,45,5.0,7.0,65,0.00,,,0.00,Rainwise IP-100,2013-11-04 14:12:00,
2013-11-04 09:17:00,27.0,18.0,30.79,NE,45,5.0,9.0,66,0.00,,,0.00,Rainwise IP-100,2013-11-04 14:17:00,
2013-11-04 09:22:00,27.0,18.0,30.79,ENE,67,6.0,8.0,64,0.00,,,0.00,Rainwise IP-100,2013-11-04 14:22:00,
2013-11-04 09:27:00,28.0,16.0,30.79,NE,45,6.0,7.0,62,0.00,,,0.00,Rainwise IP-100,2013-11-04 14:27:00,
2013-11-04 09:32:00,28.0,18.0,30.79,ENE,67,5.0,7.0,65,0.00,,,0.00,Rainwise IP-100,2013-11-04 14:32:00,
2013-11-04 09:37:00,28.0,16.0,30.79,North,360,6.0,7.0,63,0.00,,,0.00,Rainwise IP-100,2013-11-04 14:37:00,
2013-11-04 09:42:00,27.0,18.0,30.79,North,360,6.0,11.0,64,0.00,,,0.00,Rainwise IP-100,2013-11-04 14:42:00,
2013-11-04 09:47:00,28.0,18.0,30.80,North,360,4.0,9.0,64,0.00,,,0.00,Rainwise IP-100,2013-11-04 14:47:00,
2013-11-04 09:52:00,29.0,16.0,30.80,NNE,22,0.0,8.0,59,0.00,,,0.00,Rainwise IP-100,2013-11-04 14:52:00,
2013-11-04 09:57:00,29.0,18.0,30.79,East,90,0.0,6.0,60,0.00,,,0.00,Rainwise IP-100,2013-11-04 14:57:00,
2013-11-04 10:02:00,28.0,16.0,30.79,ESE,112,2.0,9.0,57,0.00,,,0.00,Rainwise IP-100,2013-11-04 15:02:00,
2013-11-04 10:07:00,28.0,16.0,30.79,East,90,3.0,8.0,61,0.00,,,0.00,Rainwise IP-100,2013-11-04 15:07:00,
2013-11-04 10:12:00,28.0,16.0,30.79,East,90,6.0,7.0,58,0.00,,,0.00,Rainwise IP-100,2013-11-04 15:12:00,
2013-11-04 10:17:00,29.0,16.0,30.80,East,90,4.0,7.0,56,0.00,,,0.00,Rainwise IP-100,2013-11-04 15:17:00,
2013-11-04 10:22:00,30.0,18.0,30.80,ENE,67,5.0,6.0,56,0.00,,,0.00,Rainwise IP-100,2013-11-04 15:22:00,
2013-11-04 10:27:00,30.0,18.0,30.79,ENE,67,6.0,7.0,56,0.00,,,0.00,Rainwise IP-100,2013-11-04 15:27:00,
2013-11-04 10:32:00,30.0,16.0,30.79,East,90,6.0,6.0,54,0.00,,,0.00,Rainwise IP-100,2013-11-04 15:32:00,
2013-11-04 10:37:00,29.0,14.0,30.79,SE,135,6.0,9.0,53,0.00,,,0.00,Rainwise IP-100,2013-11-04 15:37:00,
2013-11-04 10:42:00,29.0,16.0,30.79,East,90,8.0,8.0,55,0.00,,,0.00,Rainwise IP-100,2013-11-04 15:42:00,
2013-11-04 10:47:00,30.0,18.0,30.81,SE,135,3.0,8.0,57,0.00,,,0.00,Rainwise IP-100,2013-11-04 15:47:00,
2013-11-04 10:52:00,29.0,16.0,30.81,South,180,3.0,7.0,55,0.00,,,0.00,Rainwise IP-100,2013-11-04 15:52:00,
2013-11-04 10:57:00,29.0,16.0,30.79,SE,135,1.0,8.0,54,0.00,,,0.00,Rainwise IP-100,2013-11-04 15:57:00,
2013-11-04 11:02:00,30.0,16.0,30.79,ENE,67,5.0,8.0,55,0.00,,,0.00,Rainwise IP-100,2013-11-04 16:02:00,
2013-11-04 11:07:00,31.0,18.0,30.78,East,90,1.0,8.0,58,0.00,,,0.00,Rainwise IP-100,2013-11-04 16:07:00,
2013-11-04 11:12:00,31.0,16.0,30.78,ENE,67,6.0,8.0,54,0.00,,,0.00,Rainwise IP-100,2013-11-04 16:12:00,
2013-11-04 11:17:00,31.0,18.0,30.78,East,90,4.0,7.0,57,0.00,,,0.00,Rainwise IP-100,2013-11-04 16:17:00,
2013-11-04 11:22:00,31.0,16.0,30.78,East,90,5.0,6.0,54,0.00,,,0.00,Rainwise IP-100,2013-11-04 16:22:00,
2013-11-04 11:27:00,30.0,16.0,30.78,SE,135,5.0,8.0,52,0.00,,,0.00,Rainwise IP-100,2013-11-04 16:27:00,
2013-11-04 11:32:00,31.0,16.0,30.78,East,90,4.0,7.0,51,0.00,,,0.00,Rainwise IP-100,2013-11-04 16:32:00,
2013-11-04 11:37:00,31.0,16.0,30.78,ENE,67,5.0,10.0,55,0.00,,,0.00,Rainwise IP-100,2013-11-04 16:37:00,
2013-11-04 11:42:00,32.0,16.0,30.78,North,360,3.0,7.0,51,0.00,,,0.00,Rainwise IP-100,2013-11-04 16:42:00,
2013-11-04 11:47:00,33.0,16.0,30.77,NW,315,6.0,6.0,49,0.00,,,0.00,Rainwise IP-100,2013-11-04 16:47:00,
2013-11-04 11:52:00,34.0,18.0,30.77,ENE,67,7.0,7.0,49,0.00,,,0.00,Rainwise IP-100,2013-11-04 16:52:00,
2013-11-04 11:57:00,32.0,16.0,30.77,NE,45,6.0,8.0,49,0.00,,,0.00,Rainwise IP-100,2013-11-04 16:57:00,
2013-11-04 12:02:00,33.0,16.0,30.77,North,360,4.0,8.0,48,0.00,,,0.00,Rainwise IP-100,2013-11-04 17:02:00,
2013-11-04 12:07:00,33.0,16.0,30.76,North,360,5.0,8.0,46,0.00,,,0.00,Rainwise IP-100,2013-11-04 17:07:00,
2013-11-04 12:12:00,34.0,16.0,30.76,NE,45,1.0,7.0,45,0.00,,,0.00,Rainwise IP-100,2013-11-04 17:12:00,
2013-11-04 12:17:00,33.0,14.0,30.75,East,90,3.0,7.0,44,0.00,,,0.00,Rainwise IP-100,2013-11-04 17:17:00,
2013-11-04 12:22:00,34.0,16.0,30.75,NNW,337,6.0,8.0,44,0.00,,,0.00,Rainwise IP-100,2013-11-04 17:22:00,
2013-11-04 12:27:00,35.0,14.0,30.75,NNE,22,7.0,8.0,42,0.00,,,0.00,Rainwise IP-100,2013-11-04 17:27:00,
2013-11-04 12:32:00,34.0,16.0,30.75,East,90,7.0,9.0,44,0.00,,,0.00,Rainwise IP-100,2013-11-04 17:32:00,
2013-11-04 12:37:00,34.0,16.0,30.75,ENE,67,7.0,9.0,46,0.00,,,0.00,Rainwise IP-100,2013-11-04 17:37:00,
2013-11-04 12:42:00,33.0,16.0,30.75,NE,45,4.0,10.0,48,0.00,,,0.00,Rainwise IP-100,2013-11-04 17:42:00,
2013-11-04 12:47:00,35.0,14.0,30.75,NNW,337,4.0,9.0,41,0.00,,,0.00,Rainwise IP-100,2013-11-04 17:47:00,
2013-11-04 12:52:00,35.0,16.0,30.75,North,360,3.0,9.0,44,0.00,,,0.00,Rainwise IP-100,2013-11-04 17:52:00,
2013-11-04 12:57:00,35.0,16.0,30.74,NNE,22,7.0,9.0,44,0.00,,,0.00,Rainwise IP-100,2013-11-04 17:57:00,
2013-11-04 13:02:00,36.0,16.0,30.74,North,360,4.0,7.0,42,0.00,,,0.00,Rainwise IP-100,2013-11-04 18:02:00,
2013-11-04 13:07:00,35.0,16.0,30.74,NE,45,7.0,7.0,43,0.00,,,0.00,Rainwise IP-100,2013-11-04 18:07:00,
2013-11-04 13:12:00,36.0,16.0,30.74,NNE,22,3.0,8.0,43,0.00,,,0.00,Rainwise IP-100,2013-11-04 18:12:00,
2013-11-04 13:17:00,37.0,16.0,30.74,NE,45,2.0,7.0,40,0.00,,,0.00,Rainwise IP-100,2013-11-04 18:17:00,
2013-11-04 13:22:00,36.0,16.0,30.74,ENE,67,3.0,9.0,42,0.00,,,0.00,Rainwise IP-100,2013-11-04 18:22:00,
2013-11-04 13:27:00,36.0,16.0,30.74,NE,45,4.0,9.0,42,0.00,,,0.00,Rainwise IP-100,2013-11-04 18:27:00,
2013-11-04 13:32:00,37.0,16.0,30.74,NE,45,6.0,6.0,43,0.00,,,0.00,Rainwise IP-100,2013-11-04 18:32:00,
2013-11-04 13:37:00,36.0,16.0,30.74,NNE,22,4.0,7.0,41,0.00,,,0.00,Rainwise IP-100,2013-11-04 18:37:00,
2013-11-04 13:42:00,36.0,16.0,30.74,North,360,2.0,7.0,41,0.00,,,0.00,Rainwise IP-100,2013-11-04 18:42:00,
2013-11-04 13:47:00,35.0,14.0,30.75,NE,45,2.0,7.0,42,0.00,,,0.00,Rainwise IP-100,2013-11-04 18:47:00,
2013-11-04 13:52:00,36.0,16.0,30.75,NE,45,3.0,6.0,44,0.00,,,0.00,Rainwise IP-100,2013-11-04 18:52:00,
2013-11-04 13:57:00,36.0,16.0,30.74,NE,45,3.0,6.0,43,0.00,,,0.00,Rainwise IP-100,2013-11-04 18:57:00,
2013-11-04 14:02:00,37.0,16.0,30.74,North,360,2.0,7.0,42,0.00,,,0.00,Rainwise IP-100,2013-11-04 19:02:00,
2013-11-04 14:07:00,36.0,16.0,30.74,NE,45,6.0,7.0,43,0.00,,,0.00,Rainwise IP-100,2013-11-04 19:07:00,
2013-11-04 14:12:00,37.0,16.0,30.74,North,360,0.0,9.0,41,0.00,,,0.00,Rainwise IP-100,2013-11-04 19:12:00,
2013-11-04 14:17:00,37.0,16.0,30.73,SSE,157,2.0,6.0,39,0.00,,,0.00,Rainwise IP-100,2013-11-04 19:17:00,
2013-11-04 14:22:00,37.0,14.0,30.73,East,90,4.0,6.0,38,0.00,,,0.00,Rainwise IP-100,2013-11-04 19:22:00,
2013-11-04 14:27:00,36.0,14.0,30.74,ENE,67,6.0,6.0,40,0.00,,,0.00,Rainwise IP-100,2013-11-04 19:27:00,
2013-11-04 14:32:00,36.0,14.0,30.74,ENE,67,1.0,7.0,39,0.00,,,0.00,Rainwise IP-100,2013-11-04 19:32:00,
2013-11-04 14:37:00,37.0,16.0,30.75,SSE,157,0.0,4.0,40,0.00,,,0.00,Rainwise IP-100,2013-11-04 19:37:00,
2013-11-04 14:42:00,38.0,16.0,30.75,NNE,22,6.0,6.0,39,0.00,,,0.00,Rainwise IP-100,2013-11-04 19:42:00,
2013-11-04 14:47:00,39.0,16.0,30.74,North,360,4.0,7.0,39,0.00,,,0.00,Rainwise IP-100,2013-11-04 19:47:00,
2013-11-04 14:52:00,36.0,14.0,30.74,East,90,6.0,8.0,40,0.00,,,0.00,Rainwise IP-100,2013-11-04 19:52:00,
2013-11-04 14:57:00,36.0,16.0,30.75,East,90,2.0,9.0,41,0.00,,,0.00,Rainwise IP-100,2013-11-04 19:57:00,
2013-11-04 15:02:00,36.0,14.0,30.75,NE,45,1.0,6.0,40,0.00,,,0.00,Rainwise IP-100,2013-11-04 20:02:00,
2013-11-04 15:07:00,36.0,16.0,30.74,NE,45,2.0,7.0,42,0.00,,,0.00,Rainwise IP-100,2013-11-04 20:07:00,
2013-11-04 15:12:00,37.0,16.0,30.74,NNE,22,3.0,6.0,41,0.00,,,0.00,Rainwise IP-100,2013-11-04 20:12:00,
2013-11-04 15:17:00,36.0,16.0,30.75,East,90,4.0,6.0,43,0.00,,,0.00,Rainwise IP-100,2013-11-04 20:17:00,
2013-11-04 15:22:00,35.0,14.0,30.75,ENE,67,4.0,6.0,41,0.00,,,0.00,Rainwise IP-100,2013-11-04 20:22:00,
2013-11-04 15:27:00,36.0,16.0,30.74,NNE,22,2.0,6.0,42,0.00,,,0.00,Rainwise IP-100,2013-11-04 20:27:00,
2013-11-04 15:32:00,37.0,16.0,30.74,NNE,22,4.0,6.0,40,0.00,,,0.00,Rainwise IP-100,2013-11-04 20:32:00,
2013-11-04 15:37:00,38.0,16.0,30.74,North,360,2.0,6.0,39,0.00,,,0.00,Rainwise IP-100,2013-11-04 20:37:00,
2013-11-04 15:42:00,36.0,16.0,30.74,ENE,67,2.0,5.0,43,0.00,,,0.00,Rainwise IP-100,2013-11-04 20:42:00,
2013-11-04 15:47:00,36.0,16.0,30.74,NE,45,5.0,6.0,43,0.00,,,0.00,Rainwise IP-100,2013-11-04 20:47:00,
2013-11-04 15:52:00,36.0,16.0,30.74,NE,45,4.0,6.0,42,0.00,,,0.00,Rainwise IP-100,2013-11-04 20:52:00,
2013-11-04 15:57:00,37.0,16.0,30.73,NE,45,1.0,6.0,42,0.00,,,0.00,Rainwise IP-100,2013-11-04 20:57:00,
2013-11-04 16:02:00,37.0,16.0,30.73,NE,45,3.0,3.0,40,0.00,,,0.00,Rainwise IP-100,2013-11-04 21:02:00,
2013-11-04 16:07:00,37.0,16.0,30.74,NNE,22,3.0,5.0,40,0.00,,,0.00,Rainwise IP-100,2013-11-04 21:07:00,
2013-11-04 16:12:00,35.0,16.0,30.74,NNE,22,2.0,4.0,43,0.00,,,0.00,Rainwise IP-100,2013-11-04 21:12:00,
2013-11-04 16:17:00,35.0,16.0,30.74,NNE,22,1.0,4.0,45,0.00,,,0.00,Rainwise IP-100,2013-11-04 21:17:00,
2013-11-04 16:22:00,33.0,16.0,30.74,NNE,22,0.0,3.0,47,0.00,,,0.00,Rainwise IP-100,2013-11-04 21:22:00,
2013-11-04 16:27:00,32.0,16.0,30.75,NNE,22,1.0,4.0,51,0.00,,,0.00,Rainwise IP-100,2013-11-04 21:27:00,
2013-11-04 16:32:00,32.0,16.0,30.75,NNE,22,1.0,1.0,52,0.00,,,0.00,Rainwise IP-100,2013-11-04 21:32:00,
2013-11-04 16:37:00,31.0,16.0,30.75,NE,45,0.0,1.0,55,0.00,,,0.00,Rainwise IP-100,2013-11-04 21:37:00,
2013-11-04 16:42:00,30.0,18.0,30.75,East,90,3.0,5.0,60,0.00,,,0.00,Rainwise IP-100,2013-11-04 21:42:00,
2013-11-04 16:47:00,30.0,18.0,30.75,East,90,3.0,5.0,58,0.00,,,0.00,Rainwise IP-100,2013-11-04 21:47:00,
2013-11-04 16:52:00,30.0,18.0,30.75,East,90,3.0,4.0,59,0.00,,,0.00,Rainwise IP-100,2013-11-04 21:52:00,
2013-11-04 16:57:00,30.0,18.0,30.75,East,90,3.0,5.0,59,0.00,,,0.00,Rainwise IP-100,2013-11-04 21:57:00,
2013-11-04 17:02:00,29.0,16.0,30.75,East,90,0.0,3.0,58,0.00,,,0.00,Rainwise IP-100,2013-11-04 22:02:00,
2013-11-04 17:07:00,29.0,16.0,30.76,East,90,0.0,1.0,55,0.00,,,0.00,Rainwise IP-100,2013-11-04 22:07:00,
2013-11-04 17:12:00,29.0,16.0,30.76,East,90,0.0,0.0,56,0.00,,,0.00,Rainwise IP-100,2013-11-04 22:12:00,
2013-11-04 17:17:00,29.0,18.0,30.76,East,90,1.0,0.0,61,0.00,,,0.00,Rainwise IP-100,2013-11-04 22:17:00,
2013-11-04 17:22:00,28.0,18.0,30.76,SW,225,2.0,3.0,65,0.00,,,0.00,Rainwise IP-100,2013-11-04 22:22:00,
2013-11-04 17:27:00,28.0,16.0,30.77,SW,225,2.0,3.0,60,0.00,,,0.00,Rainwise IP-100,2013-11-04 22:27:00,
2013-11-04 17:32:00,28.0,16.0,30.77,SW,225,0.0,3.0,59,0.00,,,0.00,Rainwise IP-100,2013-11-04 22:32:00,
2013-11-04 17:37:00,28.0,16.0,30.76,SW,225,3.0,3.0,62,0.00,,,0.00,Rainwise IP-100,2013-11-04 22:37:00,
2013-11-04 17:42:00,28.0,16.0,30.76,SW,225,0.0,3.0,58,0.00,,,0.00,Rainwise IP-100,2013-11-04 22:42:00,
2013-11-04 17:47:00,28.0,16.0,30.77,SE,135,1.0,4.0,62,0.00,,,0.00,Rainwise IP-100,2013-11-04 22:47:00,
2013-11-04 17:52:00,28.0,16.0,30.77,SE,135,1.0,4.0,59,0.00,,,0.00,Rainwise IP-100,2013-11-04 22:52:00,
2013-11-04 17:57:00,28.0,16.0,30.77,SE,135,3.0,5.0,59,0.00,,,0.00,Rainwise IP-100,2013-11-04 22:57:00,
2013-11-04 18:02:00,28.0,16.0,30.77,SSE,157,2.0,4.0,63,0.00,,,0.00,Rainwise IP-100,2013-11-04 23:02:00,
2013-11-04 18:07:00,28.0,16.0,30.77,SSE,157,2.0,3.0,61,0.00,,,0.00,Rainwise IP-100,2013-11-04 23:07:00,
2013-11-04 18:12:00,28.0,18.0,30.77,SSE,157,0.0,2.0,64,0.00,,,0.00,Rainwise IP-100,2013-11-04 23:12:00,
2013-11-04 18:17:00,27.0,18.0,30.77,SSE,157,2.0,3.0,67,0.00,,,0.00,Rainwise IP-100,2013-11-04 23:17:00,
2013-11-04 18:22:00,27.0,18.0,30.77,SSE,157,3.0,3.0,68,0.00,,,0.00,Rainwise IP-100,2013-11-04 23:22:00,
2013-11-04 18:27:00,27.0,21.0,30.77,SSE,157,2.0,3.0,72,0.00,,,0.00,Rainwise IP-100,2013-11-04 23:27:00,
2013-11-04 18:32:00,26.0,18.0,30.77,SSE,157,1.0,3.0,72,0.00,,,0.00,Rainwise IP-100,2013-11-04 23:32:00,
2013-11-04 18:37:00,26.0,21.0,30.77,SSE,157,1.0,2.0,78,0.00,,,0.00,Rainwise IP-100,2013-11-04 23:37:00,
2013-11-04 18:42:00,26.0,18.0,30.77,SSE,157,1.0,3.0,69,0.00,,,0.00,Rainwise IP-100,2013-11-04 23:42:00,
2013-11-04 18:47:00,26.0,18.0,30.77,SSE,157,4.0,5.0,73,0.00,,,0.00,Rainwise IP-100,2013-11-04 23:47:00,
2013-11-04 18:52:00,26.0,21.0,30.77,SSE,157,4.0,6.0,76,0.00,,,0.00,Rainwise IP-100,2013-11-04 23:52:00,
2013-11-04 18:57:00,26.0,21.0,30.77,SSE,157,5.0,6.0,75,0.00,,,0.00,Rainwise IP-100,2013-11-04 23:57:00,
2013-11-04 19:02:00,26.0,18.0,30.77,SSE,157,5.0,6.0,72,0.00,,,0.00,Rainwise IP-100,2013-11-05 00:02:00,
2013-11-04 19:07:00,26.0,18.0,30.77,SSE,157,2.0,5.0,74,0.00,,,0.00,Rainwise IP-100,2013-11-05 00:07:00,
2013-11-04 19:12:00,25.0,21.0,30.77,SSE,157,1.0,4.0,77,0.00,,,0.00,Rainwise IP-100,2013-11-05 00:12:00,
2013-11-04 19:17:00,25.0,21.0,30.77,SSW,202,3.0,3.0,77,0.00,,,0.00,Rainwise IP-100,2013-11-05 00:17:00,
2013-11-04 19:22:00,25.0,21.0,30.77,South,180,3.0,4.0,75,0.00,,,0.00,Rainwise IP-100,2013-11-05 00:22:00,
2013-11-04 19:27:00,25.0,18.0,30.77,SSE,157,4.0,6.0,74,0.00,,,0.00,Rainwise IP-100,2013-11-05 00:27:00,
2013-11-04 19:32:00,26.0,18.0,30.77,South,180,3.0,6.0,72,0.00,,,0.00,Rainwise IP-100,2013-11-05 00:32:00,
2013-11-04 19:37:00,25.0,21.0,30.77,SW,225,2.0,4.0,76,0.00,,,0.00,Rainwise IP-100,2013-11-05 00:37:00,
2013-11-04 19:42:00,25.0,21.0,30.77,SW,225,2.0,4.0,77,0.00,,,0.00,Rainwise IP-100,2013-11-05 00:42:00,
2013-11-04 19:47:00,25.0,18.0,30.77,South,180,4.0,4.0,73,0.00,,,0.00,Rainwise IP-100,2013-11-05 00:47:00,
2013-11-04 19:52:00,25.0,21.0,30.77,South,180,3.0,6.0,76,0.00,,,0.00,Rainwise IP-100,2013-11-05 00:52:00,
2013-11-04 19:57:00,25.0,21.0,30.77,South,180,3.0,4.0,78,0.00,,,0.00,Rainwise IP-100,2013-11-05 00:57:00,
2013-11-04 20:02:00,25.0,21.0,30.77,South,180,5.0,6.0,76,0.00,,,0.00,Rainwise IP-100,2013-11-05 01:02:00,
2013-11-04 20:07:00,25.0,21.0,30.77,South,180,4.0,6.0,76,0.00,,,0.00,Rainwise IP-100,2013-11-05 01:07:00,
2013-11-04 20:12:00,25.0,18.0,30.77,South,180,5.0,5.0,74,0.00,,,0.00,Rainwise IP-100,2013-11-05 01:12:00,
2013-11-04 20:17:00,25.0,18.0,30.77,South,180,3.0,6.0,73,0.00,,,0.00,Rainwise IP-100,2013-11-05 01:17:00,
2013-11-04 20:22:00,25.0,21.0,30.77,South,180,4.0,5.0,77,0.00,,,0.00,Rainwise IP-100,2013-11-05 01:22:00,
2013-11-04 20:27:00,24.0,18.0,30.77,South,180,0.0,5.0,79,0.00,,,0.00,Rainwise IP-100,2013-11-05 01:27:00,
2013-11-04 20:32:00,24.0,21.0,30.77,South,180,0.0,0.0,81,0.00,,,0.00,Rainwise IP-100,2013-11-05 01:32:00,
2013-11-04 20:37:00,24.0,21.0,30.77,SW,225,3.0,3.0,83,0.00,,,0.00,Rainwise IP-100,2013-11-05 01:37:00,
2013-11-04 20:42:00,23.0,18.0,30.77,SW,225,2.0,4.0,82,0.00,,,0.00,Rainwise IP-100,2013-11-05 01:42:00,
2013-11-04 20:47:00,24.0,18.0,30.77,SW,225,3.0,4.0,79,0.00,,,0.00,Rainwise IP-100,2013-11-05 01:47:00,
2013-11-04 20:52:00,24.0,21.0,30.77,SE,135,3.0,6.0,83,0.00,,,0.00,Rainwise IP-100,2013-11-05 01:52:00,
2013-11-04 20:57:00,23.0,18.0,30.77,SE,135,4.0,5.0,85,0.00,,,0.00,Rainwise IP-100,2013-11-05 01:57:00,
2013-11-04 21:02:00,24.0,18.0,30.77,SSE,157,3.0,5.0,78,0.00,,,0.00,Rainwise IP-100,2013-11-05 02:02:00,
2013-11-04 21:07:00,25.0,18.0,30.78,SSE,157,4.0,5.0,74,0.00,,,0.00,Rainwise IP-100,2013-11-05 02:07:00,
2013-11-04 21:12:00,25.0,21.0,30.78,South,180,2.0,5.0,77,0.00,,,0.00,Rainwise IP-100,2013-11-05 02:12:00,
2013-11-04 21:17:00,24.0,18.0,30.77,South,180,1.0,4.0,78,0.00,,,0.00,Rainwise IP-100,2013-11-05 02:17:00,
2013-11-04 21:22:00,24.0,18.0,30.77,South,180,0.0,3.0,79,0.00,,,0.00,Rainwise IP-100,2013-11-05 02:22:00,
2013-11-04 21:27:00,23.0,18.0,30.78,South,180,0.0,1.0,83,0.00,,,0.00,Rainwise IP-100,2013-11-05 02:27:00,
2013-11-04 21:32:00,23.0,18.0,30.78,SSW,202,3.0,3.0,83,0.00,,,0.00,Rainwise IP-100,2013-11-05 02:32:00,
2013-11-04 21:37:00,23.0,18.0,30.78,SSW,202,2.0,4.0,82,0.00,,,0.00,Rainwise IP-100,2013-11-05 02:37:00,
2013-11-04 21:42:00,23.0,18.0,30.78,WSW,247,4.0,5.0,83,0.00,,,0.00,Rainwise IP-100,2013-11-05 02:42:00,
2013-11-04 21:47:00,23.0,18.0,30.78,SW,225,4.0,6.0,83,0.00,,,0.00,Rainwise IP-100,2013-11-05 02:47:00,
2013-11-04 21:52:00,23.0,16.0,30.78,South,180,6.0,6.0,78,0.00,,,0.00,Rainwise IP-100,2013-11-05 02:52:00,
2013-11-04 21:57:00,23.0,18.0,30.77,SSW,202,5.0,7.0,80,0.00,,,0.00,Rainwise IP-100,2013-11-05 02:57:00,
2013-11-04 22:02:00,23.0,18.0,30.77,SSW,202,2.0,7.0,82,0.00,,,0.00,Rainwise IP-100,2013-11-05 03:02:00,
2013-11-04 22:07:00,22.0,18.0,30.78,SSW,202,2.0,3.0,85,0.00,,,0.00,Rainwise IP-100,2013-11-05 03:07:00,
2013-11-04 22:12:00,22.0,18.0,30.78,SSW,202,3.0,3.0,85,0.00,,,0.00,Rainwise IP-100,2013-11-05 03:12:00,
2013-11-04 22:17:00,24.0,18.0,30.78,South,180,4.0,6.0,76,0.00,,,0.00,Rainwise IP-100,2013-11-05 03:17:00,
2013-11-04 22:22:00,24.0,18.0,30.78,South,180,2.0,5.0,76,0.00,,,0.00,Rainwise IP-100,2013-11-05 03:22:00,
2013-11-04 22:27:00,23.0,16.0,30.78,South,180,0.0,3.0,79,0.00,,,0.00,Rainwise IP-100,2013-11-05 03:27:00,
2013-11-04 22:32:00,22.0,18.0,30.78,SW,225,0.0,0.0,84,0.00,,,0.00,Rainwise IP-100,2013-11-05 03:32:00,
2013-11-04 22:37:00,22.0,18.0,30.79,SW,225,2.0,3.0,84,0.00,,,0.00,Rainwise IP-100,2013-11-05 03:37:00,
2013-11-04 22:42:00,22.0,18.0,30.79,SSW,202,1.0,4.0,83,0.00,,,0.00,Rainwise IP-100,2013-11-05 03:42:00,
2013-11-04 22:47:00,22.0,18.0,30.79,SSW,202,0.0,2.0,82,0.00,,,0.00,Rainwise IP-100,2013-11-05 03:47:00,
2013-11-04 22:52:00,23.0,18.0,30.79,SSW,202,2.0,4.0,81,0.00,,,0.00,Rainwise IP-100,2013-11-05 03:52:00,
2013-11-04 22:57:00,23.0,18.0,30.78,South,180,4.0,6.0,80,0.00,,,0.00,Rainwise IP-100,2013-11-05 03:57:00,
2013-11-04 23:02:00,23.0,18.0,30.78,South,180,0.0,4.0,81,0.00,,,0.00,Rainwise IP-100,2013-11-05 04:02:00,
2013-11-04 23:07:00,22.0,18.0,30.78,South,180,0.0,1.0,84,0.00,,,0.00,Rainwise IP-100,2013-11-05 04:07:00,
2013-11-04 23:12:00,22.0,18.0,30.78,SW,225,1.0,0.0,83,0.00,,,0.00,Rainwise IP-100,2013-11-05 04:12:00,
2013-11-04 23:17:00,21.0,18.0,30.79,SW,225,0.0,2.0,87,0.00,,,0.00,Rainwise IP-100,2013-11-05 04:17:00,
2013-11-04 23:22:00,23.0,16.0,30.79,South,180,2.0,3.0,78,0.00,,,0.00,Rainwise IP-100,2013-11-05 04:22:00,
2013-11-04 23:27:00,23.0,16.0,30.78,South,180,2.0,3.0,78,0.00,,,0.00,Rainwise IP-100,2013-11-05 04:27:00,
2013-11-04 23:32:00,23.0,18.0,30.78,South,180,2.0,3.0,80,0.00,,,0.00,Rainwise IP-100,2013-11-05 04:32:00,
2013-11-04 23:37:00,23.0,18.0,30.78,South,180,1.0,3.0,83,0.00,,,0.00,Rainwise IP-100,2013-11-05 04:37:00,
2013-11-04 23:42:00,22.0,18.0,30.78,South,180,0.0,2.0,84,0.00,,,0.00,Rainwise IP-100,2013-11-05 04:42:00,
2013-11-04 23:47:00,22.0,18.0,30.79,South,180,0.0,0.0,85,0.00,,,0.00,Rainwise IP-100,2013-11-05 04:47:00,
2013-11-04 23:52:00,22.0,18.0,30.79,South,180,1.0,2.0,86,0.00,,,0.00,Rainwise IP-100,2013-11-05 04:52:00,
2013-11-04 23:57:00,22.0,18.0,30.79,South,180,0.0,3.0,83,0.00,,,0.00,Rainwise IP-100,2013-11-05 04:57:00,